Airfield :
LOGIN :

Register | Disclaimer

   EN    FR    IT 

 










Legend :    VFR   Marginal VFR   IFR   Intensive IFR   Very Intensive IFR
Visi :
Ceiling :
>= 8 km
>= 3000ft
5 to 8 km
1000 to 3000 ft
1500m to 5 km
500 to 1000 ft
800 to 1500m
200 to 500 ft
< 800m
< 200 ft
Symbols :   Thunderstorms  Fog  Heavy snow  Heavy precipitations  Wind > 20 kt
SIGMETs :     Misc.  Thunderstorms  Icing  Turbulence  Mountain Waves  Volcanic Ashes







- Airport Elevation : 2026 ft
- IATA code : TOJ


LETO - Madrid Torrejon

CURRENT METAR :
  • 220000Z 03006KT CAVOK 21/07 Q1013 NOSIG

EXPIRED METARs :
  • 212300Z 00000KT CAVOK 24/06 Q1013 NOSIG
  • 212200Z 23005KT CAVOK 25/07 Q1013 NOSIG

TAF TAF LETO
Valid from the 22 at 00:00 until the 23 at 00:00 UTC


212300Z 2200/2224 VRB05KT CAVOK TX34/2216Z TN18/2206Z
BECMG 2210/2212 23010KT
BECMG 2221/2223 VRB05KT
No reported NOTAMs for that airfield.



MET'MAP, your aeronautical weather chart ! - Copyright ORBIFLY December 2007 - Disclaimer

ORBIFLY MET'MAP TEAM :

Programming & Development : Alexandra Zaïnal
Concept & Development : Baudouin d'Aumeries
Co-Development & Prog : Marc-Olivier Méhu
Technical & hardware support : Manuel Goepfert

Contact : metmap@orbifly.com




SOURCES & CREDITS :

   NOAA